AJISAI (EGS)

Last updated on Fri Jul 10 2026 00:02:12 GMT+0000 (Coordinated Universal Time)

1 16908U 86061A 26190.30805767 -.00000107 00000+0 -66793-4 0 9993 2 16908 50.0097 79.3744 0011101 236.8505 227.9761 12.44516684483149
UTC large
Height (km)
Speed (km/s)
/
Latitude / Longitude
Inclination (degrees)
Orbital Period (minutes)
Azimuth
Elevation
Range (km)
Doppler Factor

Next 0 passes for location: London (51.5072 / 0.1276)

No passes found over London.
AJISAI (EGS)